{"data":{"norad_id":60419,"intl_designator":"2024-142A","name":"CAPELLA-13 (ACADIA-3)","alt_names":[],"object_type":"PAYLOAD","status":"ACTIVE","operator":null,"country":"US","launch_date":"2024-08-11","launch_site_code":"RLLB","launch_vehicle":null,"mission":null,"orbit_class":"UNKNOWN","rcs_meters":null,"size_class":null,"mass_kg":null,"dimensions":null,"purposes":[],"wikipedia_slug":null,"has_3d_model":false,"image_url":null,"decayed_at":null,"tle_current":{"epoch":"2026-09-21T13:46:34.525344Z","epoch_age_seconds":193459,"freshness":"STALE","line1":"1 60419U 24142A   26264.57401071  .00001373  00000+0  17512-3 0  9990","line2":"2 60419  53.0077 356.8382 0001365  90.1164 269.9973 14.87652311114756","mean_motion":14.87652311,"eccentricity":0.0001365,"inclination_deg":53.0077,"raan_deg":356.8382,"arg_perigee_deg":90.1164,"mean_anomaly_deg":269.9973,"bstar":0.00017512,"rev_number":11475,"period_min":96.796811281262,"perigee_km":604.3198720644,"apogee_km":606.22634302376,"semimajor_km":6983.4101075441,"source":"CELESTRAK","updated_at":"2026-09-23T09:00:20.608332Z"}}}